GFSNW_925_thetae_003.txt.gz
Theta_e
297 298 301 301 302 304 303 304 307 310 309 311 311 311 309 310 313 313 314 314 314 314 311 311 309 310 310 309 310 313 311 313 313 312 311 310 312 311 311 315 308 310 318 318
298 298 300 301 303 303 304 307 312 309 308 311 311 311 311 312 315 315 316 316 314 313 313 312 310 309 308 310 311 312 312 316 314 318 315 313 317 312 311 311 313 312 311 311
297 298 300 301 302 303 307 310 310 310 310 311 309 310 312 313 314 314 315 316 314 314 315 312 313 311 311 310 311 313 312 316 317 316 319 317 315 316 313 312 314 315 318 318
297 298 299 301 302 302 308 310 312 308 312 312 310 311 314 313 315 315 314 316 316 316 316 315 313 312 312 313 313 313 314 316 315 315 315 317 317 317 315 315 313 314 315 317
296 298 299 300 302 302 310 313 314 309 309 312 312 312 313 317 314 317 317 317 316 316 317 314 311 312 312 313 315 314 315 316 314 317 315 315 317 316 319 315 317 316 319 318
296 297 299 300 302 303 304 305 311 312 311 314 313 313 314 316 316 316 315 315 316 317 317 313 312 312 314 315 317 317 313 313 317 320 322 319 319 317 320 319 319 319 321 319
296 297 299 301 303 303 304 305 306 315 314 313 314 315 314 315 314 315 315 315 317 316 314 313 312 314 315 316 316 314 313 313 315 321 324 328 320 321 320 320 319 317 318 319
296 297 299 301 303 303 303 305 308 314 316 312 314 315 315 314 313 315 314 314 314 314 315 319 319 320 320 317 313 315 314 316 322 326 322 319 320 323 323 322 320 318 319 317
296 297 298 301 302 302 303 305 308 310 315 316 314 315 313 315 314 314 313 313 310 314 318 320 323 318 317 316 319 312 311 313 319 322 321 321 315 316 314 319 322 318 318 318
297 297 298 300 302 302 303 304 308 310 311 312 312 314 313 312 311 311 313 313 315 313 317 321 321 319 316 318 320 321 319 319 319 321 322 317 314 312 310 323 318 309 314 313
296 297 298 300 301 301 303 304 308 311 313 312 311 311 312 311 311 314 314 315 315 317 319 321 319 318 315 317 315 318 319 321 318 317 321 317 313 312 315 312 308 309 307 305
297 297 297 299 300 301 302 305 306 311 311 311 310 310 310 311 311 312 312 315 315 317 319 318 319 318 315 317 318 314 320 317 317 316 316 312 310 312 310 307 307 306 304 303
297 297 297 298 299 301 302 303 306 310 311 311 310 311 310 310 310 311 314 313 313 315 312 317 316 315 314 319 316 316 316 314 318 319 314 314 311 310 307 305 304 302 303 303
297 297 297 298 299 301 301 301 302 306 311 314 312 309 309 309 309 310 310 311 311 312 314 317 312 315 309 313 313 315 314 314 314 314 311 309 309 309 304 302 301 301 301 301
297 296 296 297 299 300 299 301 304 306 312 315 315 309 309 309 309 309 309 310 311 315 318 320 319 312 312 309 310 311 308 314 316 317 312 312 310 305 302 303 301 300 300 299
295 296 297 297 298 299 299 306 308 309 311 312 317 311 310 308 309 310 311 311 311 314 317 319 318 313 316 312 313 313 308 307 311 314 306 303 302 301 302 301 300 299 298 298
295 296 296 297 298 299 299 306 304 304 307 311 312 313 311 309 310 311 312 312 314 314 317 318 317 316 316 315 314 313 311 308 305 302 304 305 304 303 299 299 299 298 296 296
294 294 295 297 298 299 300 301 303 303 309 310 311 311 313 310 315 315 313 314 314 314 315 313 315 311 313 317 312 310 305 303 303 301 302 303 299 298 297 296 297 296 295 294
294 296 297 299 299 302 305 308 309 309 310 311 311 312 313 310 313 311 312 312 318 312 316 315 312 313 315 314 311 308 304 306 302 298 298 299 299 297 296 296 296 295 293 292
294 295 297 303 299 297 307 309 310 307 308 308 313 308 313 311 312 311 313 310 314 314 314 308 313 315 312 311 309 307 303 300 298 299 295 295 294 295 294 295 295 295 293 290
294 297 296 295 295 298 309 307 310 310 309 310 307 308 311 307 313 313 308 309 307 311 309 315 312 314 310 307 307 303 300 299 300 300 298 299 297 295 293 292 291 291 291 290
294 295 295 293 295 301 304 306 306 311 312 308 312 307 306 306 306 310 307 309 308 314 305 311 314 310 301 303 305 300 299 298 298 297 296 294 294 293 292 291 291 290 289 288
295 295 295 296 298 304 308 309 310 309 307 306 306 305 305 303 304 303 305 311 312 300 307 309 308 298 298 299 298 297 297 296 294 293 293 292 291 292 292 290 290 289 288 288
294 295 297 298 304 304 304 305 298 298 303 305 304 304 306 304 303 302 303 306 303 305 306 305 298 295 299 297 296 297 295 293 292 292 292 291 291 289 290 289 289 289 288 288
295 296 299 302 301 299 299 298 299 300 302 304 304 302 305 304 305 300 303 305 306 305 306 299 294 287 293 295 295 293 292 292 292 291 291 290 289 289 287 288 289 288 287 287
293 295 298 301 301 302 300 299 300 300 303 300 303 304 304 307 305 299 299 302 304 306 297 290 289 293 293 292 291 291 291 292 292 291 291 290 290 288 286 287 287 287 286 284
295 299 298 298 299 300 299 301 301 303 303 308 303 307 306 295 297 297 295 301 303 296 289 287 285 288 290 290 290 291 291 291 291 290 289 287 286 286 285 283 282 284 284 283

GFSNW_925_thetae_006.txt.gz
Theta_e
298 298 298 300 302 301 302 303 307 309 308 309 309 308 306 308 313 312 315 313 314 313 310 311 308 308 308 308 309 311 311 314 312 310 310 310 310 311 310 313 307 309 306 309
298 297 298 300 302 304 303 305 310 310 308 311 311 309 310 311 314 314 315 314 314 314 313 311 309 309 308 308 310 311 311 315 315 313 312 312 314 311 310 310 311 309 308 309
298 297 298 300 302 303 305 305 311 310 309 310 310 310 310 311 312 314 314 315 313 314 315 310 311 310 310 309 310 311 311 315 315 314 316 315 316 313 312 311 314 312 312 310
298 297 297 300 302 302 306 309 308 306 308 311 309 310 310 312 313 314 314 317 315 316 319 315 313 311 310 310 311 313 313 314 315 314 313 314 316 316 314 314 312 312 310 310
298 297 298 300 302 302 305 310 310 307 308 310 308 308 312 312 313 316 315 315 315 315 318 315 312 313 312 314 311 313 313 315 314 316 316 314 317 316 317 316 313 312 311 311
296 297 298 299 302 303 302 302 305 309 311 311 309 309 311 312 314 313 313 315 316 317 317 315 314 313 312 313 315 315 313 313 316 318 319 320 318 316 315 316 315 313 314 312
296 297 298 299 302 303 303 302 306 312 313 312 311 312 310 314 315 314 314 314 316 315 313 314 312 310 311 312 314 314 313 312 315 317 319 328 321 317 314 315 316 314 312 316
297 297 298 299 302 303 303 303 306 313 313 312 311 314 313 312 313 314 314 313 313 313 315 318 318 317 317 316 315 315 314 314 319 322 324 321 321 322 316 316 318 315 315 315
297 297 298 299 301 302 303 304 306 309 313 312 312 314 313 315 315 314 314 312 310 315 317 318 321 317 317 315 317 310 314 314 317 320 324 319 314 320 318 318 325 317 316 316
297 297 298 298 300 301 302 304 305 308 313 312 313 314 314 312 312 312 311 312 313 313 318 320 321 320 315 317 320 320 318 316 319 319 322 316 313 311 316 325 321 310 316 316
297 297 298 298 299 300 302 303 306 309 311 311 311 310 311 310 310 313 313 314 314 315 318 320 320 321 315 315 312 316 317 317 317 316 320 316 312 312 317 313 309 307 308 306
297 297 297 297 298 300 301 302 303 308 310 310 310 310 310 310 310 312 312 314 315 315 319 316 318 319 312 313 316 312 318 315 316 315 314 310 310 310 309 306 307 306 304 303
297 297 297 296 297 299 301 300 301 306 311 311 309 310 310 310 310 311 313 312 313 314 313 315 314 318 312 316 314 315 314 311 316 316 314 313 310 310 305 303 304 303 302 301
297 297 295 296 297 298 300 300 299 301 309 313 309 309 309 310 310 310 310 311 311 312 313 317 316 315 309 313 312 314 313 314 314 313 311 308 309 308 303 301 300 301 300 301
295 295 295 296 297 298 298 298 301 302 309 315 314 308 308 309 309 309 310 310 311 313 316 318 319 311 310 307 308 310 309 315 317 317 312 311 310 304 301 301 300 300 300 299
295 294 294 295 296 297 298 303 307 305 308 312 315 310 309 308 309 309 310 311 311 313 316 318 317 313 313 311 313 312 308 307 310 314 306 302 301 301 301 300 299 298 298 298
294 295 294 295 295 297 298 302 302 302 304 312 311 310 311 309 309 311 312 311 312 313 314 318 317 316 315 317 318 313 309 307 305 303 303 305 303 304 299 298 297 296 295 295
294 294 295 296 297 298 298 298 301 300 303 310 311 311 312 309 313 314 312 314 314 314 315 314 315 313 313 317 312 310 305 303 302 302 301 303 298 297 296 296 296 296 295 295
294 295 297 299 298 299 301 304 306 305 309 311 310 311 311 309 312 310 312 312 317 312 316 315 313 314 316 315 312 309 304 306 301 298 298 299 299 297 296 296 296 296 294 293
293 295 295 301 296 295 300 305 309 307 309 309 312 307 312 310 312 312 313 310 314 313 314 309 313 315 313 311 309 308 304 299 298 299 296 296 296 297 296 296 296 295 294 292
293 293 296 295 295 298 305 307 310 310 310 310 309 306 311 306 312 313 308 309 307 314 308 314 312 314 311 305 307 305 301 299 300 301 298 299 299 296 295 293 292 291 290 289
293 294 294 294 295 298 303 306 306 310 308 308 311 307 305 305 305 310 307 307 308 313 303 311 313 307 301 301 305 301 298 298 299 298 297 296 296 295 293 292 290 289 288 287
294 294 295 296 297 303 307 308 309 310 306 306 305 305 303 302 302 304 305 311 311 300 308 311 307 298 298 299 299 298 297 297 295 294 293 293 291 292 292 290 289 288 287 286
293 293 294 297 301 304 304 303 303 299 300 304 303 299 301 304 302 303 309 306 304 308 308 305 298 294 296 297 296 296 296 294 292 291 291 291 291 289 290 289 288 288 286 286
294 294 295 298 300 299 299 298 298 299 301 301 304 302 303 302 300 299 304 306 307 305 305 298 293 287 292 295 294 293 291 291 290 290 290 289 289 289 288 288 288 287 286 286
294 292 292 298 296 295 300 299 300 299 303 300 302 304 306 308 301 301 303 302 304 305 296 291 286 293 293 292 291 290 290 291 291 290 290 289 289 289 287 287 286 286 286 284
294 297 296 295 295 299 298 299 301 301 302 306 303 307 309 297 297 298 296 302 302 298 288 292 285 286 290 289 290 290 290 290 290 289 289 288 287 287 286 284 282 284 284 284

GFSNW_925_thetae_012.txt.gz
Theta_e
299 299 298 300 301 302 304 302 306 305 303 305 306 312 308 311 312 314 313 312 312 313 313 313 313 314 311 309 312 314 312 312 314 313 311 310 311 312 312 316 314 316 315 315
299 299 298 300 301 302 305 303 306 305 306 312 312 309 312 314 314 315 314 314 313 311 313 314 312 311 309 309 312 313 312 314 315 316 314 312 312 312 312 313 314 316 316 312
299 298 298 300 301 303 305 303 308 306 307 309 310 311 312 315 314 315 314 314 313 313 313 312 313 312 311 309 310 310 311 313 315 316 318 315 318 314 313 315 316 315 315 313
299 299 298 299 300 303 303 307 308 307 311 310 310 311 313 314 315 314 314 314 314 314 315 314 314 312 311 310 310 311 312 315 314 313 313 314 315 315 316 315 314 315 314 312
298 298 298 299 300 302 303 305 309 308 310 310 310 311 312 313 315 314 315 316 314 314 315 315 315 314 313 314 312 312 313 315 315 315 314 316 317 316 316 316 316 314 314 314
298 298 297 299 299 301 303 302 303 308 310 310 311 312 311 312 313 314 314 314 315 315 315 314 314 313 313 313 314 314 314 315 316 317 316 318 322 319 318 317 315 314 316 314
298 298 298 299 299 300 301 303 304 310 311 311 310 310 311 312 312 316 314 313 315 314 313 314 315 315 315 316 316 313 315 314 315 317 318 328 323 318 318 318 317 315 314 313
298 298 298 299 298 300 300 302 304 309 312 310 310 310 311 313 314 314 314 313 313 313 314 316 315 317 317 317 316 317 315 316 319 322 323 320 321 317 321 319 318 315 315 314
298 298 298 299 298 299 299 303 303 307 312 312 309 311 310 312 313 314 314 312 312 314 316 317 318 320 317 318 316 314 314 315 318 321 323 326 322 315 315 315 322 314 313 314
297 298 298 298 297 298 299 301 301 304 309 312 310 312 313 313 314 315 313 313 314 313 317 317 320 319 316 319 319 318 317 317 319 320 321 320 316 313 317 323 320 313 313 314
296 297 297 296 296 297 298 299 300 300 305 310 311 311 313 312 314 315 313 314 314 315 316 317 317 319 317 318 317 319 319 320 320 320 319 324 313 316 319 317 313 310 312 313
295 295 295 295 296 296 297 298 298 297 301 310 309 310 309 310 312 313 312 315 314 314 315 316 317 317 317 317 320 313 320 319 320 319 321 315 313 315 313 310 310 310 311 309
295 295 295 295 295 295 296 296 297 297 303 311 311 312 310 310 310 311 315 312 313 314 313 316 316 318 316 320 319 317 316 314 319 319 318 316 315 313 309 307 307 307 308 306
295 295 295 294 295 295 295 296 296 297 299 310 311 309 309 309 310 310 311 312 312 312 313 314 314 316 315 319 316 317 318 315 319 319 318 317 313 310 307 305 304 304 304 303
295 295 295 294 294 295 295 295 296 296 300 309 313 309 307 309 309 310 310 312 313 313 314 315 315 316 311 313 312 317 315 319 320 320 316 316 314 307 305 305 304 302 301 299
295 295 295 295 295 295 296 299 298 296 296 303 315 310 309 308 309 310 310 311 311 313 314 314 315 315 313 319 320 317 314 313 314 318 310 308 306 305 303 304 302 301 300 298
295 295 294 295 295 295 296 299 298 296 297 303 312 311 311 309 309 310 310 311 313 313 313 314 314 316 314 317 319 317 316 313 311 309 307 309 306 308 302 301 300 298 297 296
294 294 294 295 297 296 296 296 295 296 300 304 311 312 311 309 313 313 312 313 313 313 314 314 316 314 315 319 318 318 314 310 309 308 305 305 304 301 300 299 298 298 296 295
294 293 295 298 297 298 298 297 298 299 301 310 311 312 314 310 312 312 313 314 317 313 316 315 313 317 317 318 318 317 315 312 311 303 303 302 303 301 299 299 299 298 297 295
292 293 296 299 295 295 298 299 302 303 304 307 312 308 313 311 313 314 314 312 315 315 314 309 313 316 316 316 314 314 311 308 303 304 302 300 300 299 299 300 300 299 296 294
293 293 295 294 295 298 300 301 305 308 310 310 310 309 311 308 313 315 310 313 309 315 313 314 316 317 314 308 305 306 309 306 304 304 304 303 303 301 300 298 297 295 294 293
293 294 294 294 296 299 303 305 306 309 311 310 311 310 308 308 306 312 309 311 309 315 305 311 315 314 307 303 303 303 305 304 302 302 302 302 301 299 298 296 295 294 291 289
293 294 293 296 299 305 305 305 308 310 304 303 305 308 308 305 305 307 308 311 313 304 310 312 312 308 303 299 300 301 300 301 300 298 299 299 297 296 296 294 292 291 289 288
294 295 296 301 302 302 302 302 303 302 300 302 305 305 306 305 307 306 311 309 306 310 311 312 309 303 298 297 298 299 300 299 298 296 296 295 295 293 292 292 290 289 288 287
295 294 298 299 297 299 299 297 298 299 300 301 304 304 305 305 306 304 307 309 310 310 312 310 304 297 295 298 298 298 297 296 295 294 294 293 292 292 290 290 290 288 287 286
294 294 296 297 296 295 297 297 298 298 301 300 302 306 308 310 308 307 309 309 311 311 307 304 296 297 296 297 296 295 294 294 293 293 293 292 291 290 289 288 288 287 286 285
294 297 296 296 294 293 295 295 297 298 300 304 303 308 312 301 306 305 304 308 308 300 300 294 293 294 295 294 293 293 292 293 292 291 291 290 288 288 288 287 286 285 284 283

GFSNW_925_thetae_015.txt.gz
Theta_e
299 300 299 301 302 305 305 300 305 304 304 309 309 313 312 311 312 313 313 313 313 314 313 314 314 315 312 311 313 314 313 313 315 314 311 311 312 313 312 317 316 316 317 317
299 299 299 300 302 304 305 305 305 304 306 311 311 310 313 312 314 315 315 314 313 313 314 315 314 314 311 310 313 314 313 315 316 318 315 313 313 313 313 314 316 318 319 316
298 299 299 300 301 304 303 305 308 306 308 311 311 314 314 315 315 315 314 314 313 313 314 314 314 314 312 310 312 312 313 314 317 317 320 316 318 315 314 316 319 317 317 315
299 299 299 299 300 303 303 308 309 308 312 311 312 313 314 315 314 315 314 314 314 313 314 314 314 314 313 312 312 311 312 318 315 314 314 315 316 316 316 316 317 318 316 315
299 299 299 299 300 302 304 306 309 309 310 310 310 311 314 314 315 314 314 315 314 314 315 315 315 315 314 314 312 313 313 317 315 315 314 315 318 317 318 320 319 317 317 317
299 299 299 299 299 301 302 304 304 308 310 311 312 313 313 313 314 315 314 315 315 315 315 315 315 314 314 314 314 314 314 315 315 317 316 317 322 322 321 320 318 318 320 318
298 298 298 299 298 300 300 303 304 310 311 312 311 311 312 312 314 315 315 314 315 316 314 314 315 315 315 315 314 314 315 314 316 320 318 327 322 317 319 320 319 317 316 317
298 298 299 299 298 299 299 302 304 308 313 311 311 311 313 313 312 314 315 314 314 313 314 316 315 318 317 317 315 316 315 316 320 322 320 319 323 320 321 321 321 316 316 318
296 297 298 297 297 298 298 301 301 305 310 312 311 311 312 314 314 315 314 313 314 314 316 317 316 320 318 319 318 315 316 314 319 320 322 324 323 319 317 318 323 316 315 318
296 295 295 296 296 297 297 299 299 302 308 311 312 311 313 312 313 315 315 315 315 314 317 318 317 319 317 318 320 318 319 318 319 319 321 319 318 317 316 325 321 315 313 316
296 295 295 295 296 296 296 298 299 298 302 304 310 311 313 313 314 315 315 316 315 316 318 317 317 318 317 318 317 319 319 319 319 318 321 323 316 317 321 319 316 314 313 315
296 296 295 295 295 295 296 297 296 297 299 303 307 311 311 312 313 315 314 316 315 315 315 316 317 319 316 317 320 316 320 319 321 320 322 319 317 317 316 314 313 313 312 313
296 296 296 296 295 295 296 296 296 297 300 307 310 313 311 310 311 312 315 315 314 315 314 315 316 318 317 321 319 319 318 317 319 320 320 319 318 316 313 310 310 310 310 310
296 296 295 295 296 294 295 296 296 296 297 305 312 309 311 310 310 311 312 313 312 313 314 314 314 315 315 318 318 319 319 317 320 320 320 319 316 313 310 308 307 308 308 306
296 295 295 296 296 295 295 295 297 296 297 306 312 310 308 310 311 311 312 313 314 314 315 315 315 314 315 315 315 317 317 318 321 320 319 319 316 310 308 308 306 305 304 302
296 296 296 296 295 295 295 298 297 297 296 301 314 311 310 309 311 311 312 312 313 313 314 315 314 313 315 318 318 316 316 316 316 318 314 312 310 307 306 306 304 303 302 300
295 294 295 295 295 295 295 297 297 296 297 301 312 313 311 310 310 311 311 311 313 313 314 314 314 314 315 316 317 316 316 317 315 314 311 312 309 310 305 304 302 300 299 298
294 295 294 295 296 296 296 295 296 294 299 302 311 314 313 310 313 314 311 313 313 313 314 314 314 314 315 317 316 316 316 316 315 313 310 309 307 305 303 301 300 299 299 297
294 293 296 297 296 297 298 297 297 297 299 306 312 314 316 311 313 313 313 314 316 314 316 316 314 316 318 316 317 318 317 315 315 310 307 306 306 304 302 301 301 299 298 297
292 295 298 299 297 295 297 297 301 301 303 304 312 311 314 312 313 315 315 314 316 317 316 311 314 316 315 315 315 315 315 313 307 307 304 304 303 302 302 302 301 300 298 296
294 295 295 295 296 298 300 302 302 306 309 310 312 311 313 310 314 315 312 314 311 317 315 314 317 318 316 309 307 306 307 309 309 309 308 305 305 303 303 302 301 299 297 295
293 293 294 295 295 299 304 305 304 309 312 311 312 311 310 311 309 314 311 313 312 316 308 312 314 316 309 305 303 303 304 307 308 306 305 305 305 303 302 300 298 296 294 291
294 295 296 298 302 306 308 307 307 309 304 303 306 310 309 308 309 311 311 312 314 307 312 313 314 313 306 301 301 302 302 303 303 302 302 303 302 301 299 298 296 293 291 290
295 295 300 301 305 302 302 302 303 302 301 302 304 307 309 307 311 310 312 311 308 311 312 314 316 307 301 300 301 301 302 300 300 300 299 298 298 298 297 295 293 292 291 290
296 295 301 300 299 300 299 299 300 299 300 302 305 305 306 307 309 308 309 310 311 311 314 314 306 300 299 300 299 300 300 298 297 297 297 296 295 295 293 292 292 290 289 289
296 295 297 297 298 300 299 298 299 299 299 300 301 306 309 310 311 308 309 310 313 314 305 302 300 298 298 298 297 297 297 297 296 296 295 295 294 293 292 291 290 289 289 288
294 296 297 297 296 297 298 297 298 297 300 304 303 308 311 305 309 309 310 311 306 300 299 298 297 295 295 295 295 295 294 295 295 294 294 293 292 291 290 289 288 287 286 285